Location: Poughquag
(41.6090°N, 73.6820°W)
Time: 19:56:58
(UTC-04:00)

MOZHAYETS 4 - Pass Details

Date: 18 August 2024
Orbit: 650 x 668 km, 98.3° (Epoch: 15 September)

Event Time Altitude Azimuth Distance (km) Brightness Sun altitude
Exits shadow 04:17:42 - 161° (SSE) 2,879 10.8 -18.8°
Reaches altitude 10° 04:19:37 10° 160° (SSE) 2,090 10.1 -18.5°
Maximum altitude 04:24:11 78° 76° (ENE) 690 7.8 -17.8°
Drops below altitude 10° 04:28:47 10° 350° (N) 2,105 10.6 -17.2°
Sets 04:31:01 0° 349° (N) 3,022 11.4 -16.8°
